Overview Statistics Trail Chart Weather Telemetry Raw packets
 

This is the latest recevied weather packets stored in our database for station/object W5ITZ. If no packets are shown the sender has not sent any weather packets the latest 10 day(s).

<< 27 28 29 30 31 32 33 >>
Time Temp. Humidity Pressure Rain* Wind** Luminosity Snow
1788039512 34.44° C 54% 1014.5 hPa 0 mm - 596 W/m² -
1788039207 33.89° C 55% 1014.5 hPa 0 mm - 628 W/m² -
1788038902 34.44° C 55% 1014.5 hPa 0 mm - 617 W/m² -
1788038598 34.44° C 55% 1014.7 hPa 0 mm - 622 W/m² -
1788038297 34.44° C 56% 1014.7 hPa 0 mm - 634 W/m² -
1788037993 33.89° C 55% 1014.7 hPa 0 mm - 651 W/m² -
1788037687 35° C 53% 1014.8 hPa 0 mm - 663 W/m² -
1788037382 35° C 53% 1014.8 hPa 0 mm - 678 W/m² -
1788037081 35° C 54% 1014.7 hPa 0 mm - 694 W/m² -
1788036776 35° C 54% 1015 hPa 0 mm - 711 W/m² -
1788036474 34.44° C 53% 1015 hPa 0 mm - 742 W/m² -
1788036168 34.44° C 54% 1014.9 hPa 0 mm - 780 W/m² -
1788035868 35° C 52% 1015.1 hPa 0 mm - 803 W/m² -
1788035563 35° C 53% 1015.1 hPa 0 mm - 391 W/m² -
1788035258 35° C 53% 1015.3 hPa 0 mm - 836 W/m² -
1788034954 35° C 53% 1015.3 hPa 0 mm - 867 W/m² -
1788034650 35° C 54% 1015.5 hPa 0 mm - 850 W/m² -
1788034346 35° C 54% 1015.4 hPa 0 mm - 881 W/m² -
1788034046 35° C 53% 1015.5 hPa 0 mm - 861 W/m² -
1788033740 35° C 54% 1015.6 hPa 0 mm - 864 W/m² -
1788033440 35° C 54% 1015.5 hPa 0 mm - 887 W/m² -
1788033135 35° C 53% 1015.5 hPa 0 mm - 906 W/m² -
1788032830 35° C 53% 1015.6 hPa 0 mm - 957 W/m² -
1788032529 35° C 53% 1015.7 hPa 0 mm - 929 W/m² -
1788032225 35° C 54% 1015.9 hPa 0 mm - 982 W/m² -

* Rain latest hour (hover to see other rain measurements)
** Current wind speed in m/s (hover to see current wind gust speed)